TimeEDT,TemperatureF,Dew PointF,Humidity,Sea Level PressureIn,VisibilityMPH,Wind Direction,Wind SpeedMPH,Gust SpeedMPH,PrecipitationIn,Events,Conditions,WindDirDegrees,DateUTC
12:56 AM,57.9,55.9,93,30.13,6.0,NNE,11.5,-,0.02,Rain,Light Rain,30,2013-09-16 04:56:00
1:56 AM,56.8,55.9,97,30.13,6.0,East,8.1,-,0.00,,Overcast,80,2013-09-16 05:56:00
2:56 AM,56.8,55.9,97,30.14,3.0,SE,4.6,-,0.01,Rain,Light Rain,140,2013-09-16 06:56:00
3:30 AM,57.2,55.4,94,30.14,2.5,Calm,Calm,-,0.01,Rain,Light Rain,0,2013-09-16 07:30:00
3:40 AM,57.2,57.2,100,30.14,3.0,SE,4.6,-,0.01,,Overcast,140,2013-09-16 07:40:00
3:56 AM,56.8,56.8,100,30.13,4.0,SSE,3.5,-,0.01,,Overcast,160,2013-09-16 07:56:00
4:56 AM,56.8,56.8,100,30.14,4.0,Calm,Calm,-,N/A,,Overcast,0,2013-09-16 08:56:00
5:16 AM,57.2,57.2,100,30.16,3.0,Calm,Calm,-,N/A,,Overcast,0,2013-09-16 09:16:00
5:56 AM,57.9,56.8,96,30.16,5.0,Calm,Calm,-,N/A,,Mostly Cloudy,0,2013-09-16 09:56:00
6:18 AM,57.2,57.2,100,30.18,4.0,SSW,4.6,-,N/A,,Overcast,210,2013-09-16 10:18:00
6:28 AM,57.2,57.2,100,30.18,4.0,South,3.5,-,N/A,,Overcast,190,2013-09-16 10:28:00
6:56 AM,57.9,56.8,96,30.18,4.0,Calm,Calm,-,N/A,,Overcast,0,2013-09-16 10:56:00
7:47 AM,57.2,57.2,100,30.21,3.0,North,5.8,-,N/A,,Overcast,360,2013-09-16 11:47:00
7:56 AM,57.9,57.9,100,30.20,3.0,North,6.9,-,N/A,,Overcast,360,2013-09-16 11:56:00
8:11 AM,57.2,57.2,100,30.22,3.0,Variable,5.8,-,N/A,,Mostly Cloudy,0,2013-09-16 12:11:00
8:44 AM,59.0,57.2,94,30.23,3.0,Variable,6.9,-,N/A,,Overcast,0,2013-09-16 12:44:00
8:56 AM,59.0,56.8,93,30.22,3.0,South,6.9,-,N/A,,Overcast,170,2013-09-16 12:56:00
9:22 AM,59.0,55.4,88,30.24,4.0,South,9.2,-,N/A,,Overcast,170,2013-09-16 13:22:00
9:56 AM,59.9,55.9,87,30.24,5.0,South,10.4,-,N/A,,Overcast,170,2013-09-16 13:56:00
10:14 AM,60.8,55.4,82,30.26,6.0,South,9.2,-,N/A,,Overcast,170,2013-09-16 14:14:00
10:56 AM,61.9,55.9,81,30.27,6.0,South,9.2,-,N/A,,Haze,170,2013-09-16 14:56:00
11:14 AM,62.6,55.4,77,30.28,7.0,South,10.4,-,N/A,,Overcast,170,2013-09-16 15:14:00
11:56 AM,64.9,55.9,73,30.28,7.0,South,6.9,-,N/A,,Overcast,180,2013-09-16 15:56:00
12:10 PM,66.2,55.4,68,30.28,7.0,South,10.4,-,N/A,,Overcast,170,2013-09-16 16:10:00
12:37 PM,68.0,55.4,64,30.28,8.0,South,8.1,-,N/A,,Overcast,180,2013-09-16 16:37:00
12:56 PM,65.8,54.9,68,30.28,8.0,South,11.5,-,N/A,,Overcast,170,2013-09-16 16:56:00
1:20 PM,66.2,55.4,68,30.28,8.0,South,10.4,-,N/A,,Overcast,170,2013-09-16 17:20:00
1:56 PM,66.9,54.9,65,30.29,8.0,South,11.5,-,N/A,,Overcast,170,2013-09-16 17:56:00
2:56 PM,68.0,54.9,63,30.28,7.0,South,8.1,-,N/A,,Mostly Cloudy,170,2013-09-16 18:56:00
3:56 PM,66.9,52.9,61,30.27,8.0,South,8.1,-,N/A,,Mostly Cloudy,170,2013-09-16 19:56:00
4:56 PM,66.9,52.9,61,30.26,8.0,SSE,9.2,-,N/A,,Scattered Clouds,160,2013-09-16 20:56:00
5:56 PM,70.0,50.9,51,30.26,8.0,South,6.9,-,N/A,,Partly Cloudy,170,2013-09-16 21:56:00
6:56 PM,68.9,50.0,51,30.26,8.0,Calm,Calm,-,N/A,,Scattered Clouds,0,2013-09-16 22:56:00
7:56 PM,61.0,50.0,67,30.27,9.0,South,3.5,-,N/A,,Clear,170,2013-09-16 23:56:00
8:56 PM,59.0,50.9,74,30.29,9.0,South,6.9,-,N/A,,Clear,170,2013-09-17 00:56:00
9:56 PM,56.8,52.0,84,30.30,9.0,South,10.4,-,N/A,,Clear,170,2013-09-17 01:56:00
10:56 PM,54.9,50.9,86,30.32,9.0,South,10.4,-,N/A,,Clear,170,2013-09-17 02:56:00
11:56 PM,52.9,50.0,90,30.33,9.0,South,8.1,-,N/A,,Clear,170,2013-09-17 03:56:00